Thompson, Ohio, United States (44086)
Lat: 41.69N, Lon: 81.05W
Wx Zone: OHZ013
Local Info
Past Weather Observations for Saturday, July 19, 2014

NOTE: This archive is for the closest National Weather Service station to Thompson. Information may differ from the station used for current weather conditions.

Click here for Long-term Archive

Time Weather Temperature Dewpoint Humidity Pressure Winds Precip Visibility
23:53
Overcast
Fog And Mist
64°F / 18°C 63°F / 17°C 94% 30.09 in
(1019 mb)
SSE 5.8 mph
(SSE 9 kph)
- 5SM
23:45
Overcast
Fog And Mist
64°F / 18°C 63°F / 17°C 94% 30.09 in
(1019 mb)
SSE 5.8 mph
(SSE 9 kph)
- 4SM
23:37
Overcast
Fog And Mist
64°F / 18°C 63°F / 17°C 94% 30.09 in
(1019 mb)
SSE 5.8 mph
(SSE 9 kph)
- 4SM
22:53
Overcast
Fog And Mist
64°F / 18°C 63°F / 17°C 94% 30.09 in
(1019 mb)
SSE 5.8 mph
(SSE 9 kph)
- 6SM
22:50
Overcast
Fog And Mist
64°F / 18°C 63°F / 17°C 94% 30.09 in
(1019 mb)
SSE 6.9 mph
(SSE 11 kph)
- 6SM
22:43
Overcast
64°F / 18°C 63°F / 17°C 94% 30.09 in
(1019 mb)
SSE 4.6 mph
(SSE 7 kph)
- 8SM
22:08
Overcast
64°F / 18°C 63°F / 17°C 94% 30.09 in
(1019 mb)
SSE 6.9 mph
(SSE 11 kph)
- 10SM
22:01
Overcast
64°F / 18°C 63°F / 17°C 94% 30.09 in
(1019 mb)
SSE 5.8 mph
(SSE 9 kph)
- 10SM
21:53
Overcast
64°F / 18°C 63°F / 17°C 94% 30.09 in
(1019 mb)
SSE 5.8 mph
(SSE 9 kph)
- 10SM
21:51
Overcast
64°F / 18°C 63°F / 17°C 94% 30.09 in
(1019 mb)
SSE 6.9 mph
(SSE 11 kph)
- 10SM
21:06
Overcast
66°F / 19°C 63°F / 17°C 88% 30.12 in
(1020 mb)
SSE 8.1 mph
(SSE 13 kph)
- 10SM
20:53
Overcast
66°F / 19°C 63°F / 17°C 88% 30.12 in
(1020 mb)
S 6.9 mph
(S 11 kph)
- 10SM
20:38
Overcast
66°F / 19°C 63°F / 17°C 88% 30.09 in
(1019 mb)
S 8.1 mph
(S 13 kph)
- 10SM
18:53
Overcast
68°F / 20°C 63°F / 17°C 83% 30.09 in
(1019 mb)
S 9.2 mph
(S 15 kph)
- 9SM
18:45
Overcast
68°F / 20°C 63°F / 17°C 83% 30.09 in
(1019 mb)
S 6.9 mph
(S 11 kph)
- 10SM
18:32
Overcast
68°F / 20°C 63°F / 17°C 83% 30.09 in
(1019 mb)
S 9.2 mph
(S 15 kph)
- 10SM
18:21
Overcast
68°F / 20°C 63°F / 17°C 83% 30.09 in
(1019 mb)
S 8.1 mph
(S 13 kph)
- 10SM
17:53
Overcast
70°F / 21°C 64°F / 18°C 83% 30.09 in
(1019 mb)
S 11.5 mph
(S 19 kph)
- 10SM
17:22
Overcast
70°F / 21°C 64°F / 18°C 83% 30.09 in
(1019 mb)
S 6.9 mph
(S 11 kph)
- 10SM
16:53
Overcast
70°F / 21°C 64°F / 18°C 83% 30.09 in
(1019 mb)
SSE 10.4 mph
(SSE 17 kph)
- 9SM
15:53
Overcast
70°F / 21°C 64°F / 18°C 83% 30.09 in
(1019 mb)
SSE 8.1 mph
(SSE 13 kph)
0.00 in
(0.00 mm)
7SM
15:29
Overcast
Fog And Mist
68°F / 20°C 64°F / 18°C 88% 30.09 in
(1019 mb)
SSE 8.1 mph
(SSE 13 kph)
0.00 in
(0.00 mm)
6SM
15:09
Overcast
Light Rain
66°F / 19°C 64°F / 18°C 94% 30.09 in
(1019 mb)
S 6.9 mph
(S 11 kph)
0.00 in
(0.00 mm)
4SM
14:53
Overcast
Light Rain
66°F / 19°C 64°F / 18°C 94% 30.09 in
(1019 mb)
S 9.2 mph
(S 15 kph)
0.01 in
(0.25 mm)
4SM
14:27
Overcast
Fog And Mist
66°F / 19°C 64°F / 18°C 94% 30.09 in
(1019 mb)
S 10.4 mph
(S 17 kph)
0.01 in
(0.25 mm)
6SM
13:53
Overcast
Fog And Mist
66°F / 19°C 64°F / 18°C 94% 30.09 in
(1019 mb)
S 10.4 mph
(S 17 kph)
0.01 in
(0.25 mm)
5SM
13:48
Overcast
Light Rain
66°F / 19°C 64°F / 18°C 94% 30.09 in
(1019 mb)
S 8.1 mph
(S 13 kph)
0.01 in
(0.25 mm)
5SM
13:30
Overcast
Light Rain
66°F / 19°C 63°F / 17°C 88% 30.09 in
(1019 mb)
S 5.8 mph
(S 9 kph)
0.01 in
(0.25 mm)
2 1/2SM
13:17
Overcast
Fog And Mist
66°F / 19°C 63°F / 17°C 88% 30.12 in
(1020 mb)
SSE 8.1 mph
(SSE 13 kph)
- 6SM
12:53
Overcast
66°F / 19°C 63°F / 17°C 88% 30.12 in
(1020 mb)
SSE 10.4 mph
(SSE 17 kph)
- 9SM
12:37
Overcast
66°F / 19°C 63°F / 17°C 88% 30.12 in
(1020 mb)
SSE 10.4 mph
(SSE 17 kph)
- 10SM
11:53
Overcast
68°F / 20°C 64°F / 18°C 88% 30.12 in
(1020 mb)
SSE 9.2 mph
(SSE 15 kph)
0.04 in
(1.02 mm)
10SM
11:35
Overcast
Light Rain
66°F / 19°C 63°F / 17°C 88% 30.12 in
(1020 mb)
SE 9.2 mph
(SE 15 kph)
0.04 in
(1.02 mm)
9SM
10:53
Overcast
Light Rain
64°F / 18°C 63°F / 17°C 94% 30.12 in
(1020 mb)
SE 9.2 mph
(SE 15 kph)
0.02 in
(0.51 mm)
7SM
10:50
Overcast
Light Rain
64°F / 18°C 63°F / 17°C 94% 30.12 in
(1020 mb)
SE 10.4 mph
(SE 17 kph)
0.02 in
(0.51 mm)
7SM
10:43
Overcast
Light Rain
64°F / 18°C 63°F / 17°C 94% 30.12 in
(1020 mb)
SSE 9.2 mph
(SSE 15 kph)
0.02 in
(0.51 mm)
10SM
10:00
Overcast
Light Rain
64°F / 18°C 63°F / 17°C 94% 30.15 in
(1021 mb)
SE 8.1 mph
(SE 13 kph)
0.01 in
(0.25 mm)
8SM
09:53
Overcast
Light Rain
64°F / 18°C 63°F / 17°C 94% 30.15 in
(1021 mb)
SE 8.1 mph
(SE 13 kph)
0.00 in
(0.00 mm)
9SM
09:09
Overcast
64°F / 18°C 61°F / 16°C 88% 30.15 in
(1021 mb)
SE 9.2 mph
(SE 15 kph)
0.00 in
(0.00 mm)
7SM
08:53
Overcast
Light Rain
63°F / 17°C 61°F / 16°C 94% 30.15 in
(1021 mb)
ESE 8.1 mph
(ESE 13 kph)
0.03 in
(0.76 mm)
4SM
08:50
Overcast
Light Rain
63°F / 17°C 61°F / 16°C 94% 30.15 in
(1021 mb)
ESE 10.4 mph
(ESE 17 kph)
0.03 in
(0.76 mm)
4SM
08:42
Overcast
Light Rain
63°F / 17°C 61°F / 16°C 94% 30.15 in
(1021 mb)
ESE 8.1 mph
(ESE 13 kph)
0.03 in
(0.76 mm)
2 1/2SM
08:05
Overcast
Light Rain
63°F / 17°C 61°F / 16°C 94% 30.18 in
(1022 mb)
ESE 6.9 mph
(ESE 11 kph)
0.00 in
(0.00 mm)
3SM
07:55
Overcast
Light Rain
63°F / 17°C 61°F / 16°C 94% 30.18 in
(1022 mb)
SE 8.1 mph
(SE 13 kph)
0.00 in
(0.00 mm)
3SM
07:53
Overcast
Light Rain
63°F / 17°C 61°F / 16°C 94% 30.18 in
(1022 mb)
SE 9.2 mph
(SE 15 kph)
0.06 in
(1.52 mm)
2 1/2SM
07:50
Overcast
Light Rain
63°F / 17°C 61°F / 16°C 94% 30.18 in
(1022 mb)
SE 6.9 mph
(SE 11 kph)
0.05 in
(1.27 mm)
2 1/2SM
06:53
Overcast
Light Rain
63°F / 17°C 61°F / 16°C 94% 30.18 in
(1022 mb)
SE 5.8 mph
(SE 9 kph)
0.09 in
(2.29 mm)
3SM
06:50
Overcast
Light Rain
63°F / 17°C 61°F / 16°C 94% 30.18 in
(1022 mb)
ESE 5.8 mph
(ESE 9 kph)
0.08 in
(2.03 mm)
3SM
06:38
Overcast
Rain
63°F / 17°C 61°F / 16°C 94% 30.18 in
(1022 mb)
SE 8.1 mph
(SE 13 kph)
0.07 in
(1.78 mm)
2 1/2SM
06:24
Overcast
Rain
63°F / 17°C 61°F / 16°C 94% 30.18 in
(1022 mb)
ESE 5.8 mph
(ESE 9 kph)
0.04 in
(1.02 mm)
1 1/2SM
06:14
Overcast
Light Rain
63°F / 17°C 61°F / 16°C 94% 30.18 in
(1022 mb)
SE 3.5 mph
(SE 6 kph)
0.01 in
(0.25 mm)
2SM
06:02
Overcast
Light Rain
63°F / 17°C 61°F / 16°C 94% 30.18 in
(1022 mb)
SE 4.6 mph
(SE 7 kph)
0.00 in
(0.00 mm)
3SM
05:53
Overcast
Light Rain
63°F / 17°C 61°F / 16°C 94% 30.18 in
(1022 mb)
SE 4.6 mph
(SE 7 kph)
0.03 in
(0.76 mm)
2 1/2SM
05:35
Overcast
Light Rain
63°F / 17°C 61°F / 16°C 94% 30.18 in
(1022 mb)
SE 4.6 mph
(SE 7 kph)
0.02 in
(0.51 mm)
2 1/2SM
04:53
Overcast
Fog And Mist
63°F / 17°C 61°F / 16°C 94% 30.18 in
(1022 mb)
SE 4.6 mph
(SE 7 kph)
0.01 in
(0.25 mm)
5SM
03:53
Overcast
Light Rain
63°F / 17°C 61°F / 16°C 94% 30.18 in
(1022 mb)
SSE 5.8 mph
(SSE 9 kph)
0.04 in
(1.02 mm)
5SM
02:53
Overcast
Light Rain
63°F / 17°C 59°F / 15°C 88% 30.18 in
(1022 mb)
SSE 6.9 mph
(SSE 11 kph)
0.03 in
(0.76 mm)
7SM
01:53
Overcast
Light Rain
64°F / 18°C 57°F / 14°C 78% 30.18 in
(1022 mb)
SSE 5.8 mph
(SSE 9 kph)
0.00 in
(0.00 mm)
10SM
00:53
Mostly Cloudy
64°F / 18°C 57°F / 14°C 78% 30.18 in
(1022 mb)
SE 4.6 mph
(SE 7 kph)
- 10SM
Time Weather Temperature Dewpoint Humidity Pressure Winds Precip Visibility


Weather for websites

WeatherForYou.com, LLC is not responsible for any damages or problems caused by this service. Current weather conditions are obtained from the closest station including government and personal stations which may have varying degrees of accuracy. Weather forecasts are derived from the NOAA NDFD. Like all things, this site belongs to Jesus Christ... He just trusts me to maintain it. If you have any questions or comments email webmaster@weatherforyou.com

Copyright © 2014, WeatherForYou.com LLC. All rights reserved.